Location: Fort Worth, Tx
(32.7431°N, 97.3695°W)
Time: 04:17:09
(UTC-05:00)

Altair - Pass Details

Date: 11 October 2023
Orbit: 1501 x 1682 km, 47.2° (Epoch: 06 December)

Event Time Altitude Azimuth Distance (km) Brightness Sun altitude
Rises 23:38:47 0° 210° (SSW) 4,631 10.1 -45.5°
Enters shadow 23:39:51 - 208° (SSW) 4,294 9.9 -45.7°
Reaches altitude 10° 23:41:53 10° 205° (SSW) 3,663 - -46.1°
Maximum altitude 23:50:41 50° 133° (SE) 1,890 - -47.8°
Drops below altitude 10° 23:59:46 10° 61° (ENE) 3,794 - -49.4°
Sets 00:03:02 0° 57° (ENE) 4,808 - -50.0°
